Jomi — C6VK4 — position and weather

sailwx.info

Track history (hours):
 
Tides and Currents Weather Stations Pressure Air Temp Water Temp Dewpoint Dewpoint Depression Visibility Wind Speed Wind Dir Waves Ship Positions

Jomi

Last reported at 2014-Oct-24 03:33 UTC. Time now 2014-Oct-25 07:05 UTC.
Position N 50°33' E 000°20'.

Length 88 m; draft 5.9 m.

Type: Cargo ship. MMSI: 309701000.

Date/timePositionNaut miles runAvg speedWind from/ knotsBaromVisibWave heightAir tempDewpointWater temp
2014-Oct-24 03:33N 50°33' E 000°20'10 9.8
2014-Oct-24 02:33N 50°37' E 000°34'9 9.1
2014-Oct-24 01:33N 50°42' E 000°46'8 8.3
2014-Oct-24 00:32N 50°46' E 000°58'16 7.0
2014-Oct-23 22:13N 50°55' E 001°19'4 6.6
2014-Oct-23 21:32N 50°59' E 001°23'8 8.1
2014-Oct-23 20:33N 51°04' E 001°33'8 7.7
2014-Oct-23 19:33N 51°04' E 001°45'1010.4
2014-Oct-23 18:33N 51°03' E 002°01'1211.6
2014-Oct-23 17:33N 51°04' E 002°19'1 0.9
2014-Oct-23 16:33N 51°03' E 002°19'2 1.7
2014-Oct-23 15:32N 51°02' E 002°16'0 0.0
2014-Oct-23 14:32N 51°02' E 002°16'0 0.0
2014-Oct-23 13:32N 51°02' E 002°16'0 0.0
2014-Oct-23 12:32N 51°02' E 002°16'0 0.0
2014-Oct-23 11:32N 51°02' E 002°16'0 0.0
2014-Oct-23 10:32N 51°02' E 002°16'0 0.0
2014-Oct-23 09:32N 51°02' E 002°16'0 0.0
2014-Oct-23 08:33N 51°02' E 002°16'0 0.0
2014-Oct-23 07:33N 51°02' E 002°16'2 1.9
2014-Oct-23 06:33N 51°03' E 002°19'1 1.4
2014-Oct-23 05:33N 51°04' E 002°21'8 7.8
2014-Oct-23 04:33N 51°03' E 002°09'9 9.2
2014-Oct-23 03:33N 51°02' E 001°54'7 7.5
2014-Oct-23 02:33N 51°06' E 001°43'6 6.0
2014-Oct-23 01:33N 51°12' E 001°45'6 6.3
2014-Oct-23 00:33N 51°18' E 001°49'7 6.6
2014-Oct-22 23:33N 51°24' E 001°53'7 7.2
2014-Oct-22 22:33N 51°29' E 002°01'9 8.6
2014-Oct-22 21:33N 51°35' E 002°10'181 5.6
2014-Oct-21 13:27N 54°08' E 004°50'6 6.2
2014-Oct-21 12:33N 54°13' E 004°52'  
2014-Oct-16 21:27N 66°17' E 012°15'8 8.4
2014-Oct-16 20:33N 66°14' E 012°33'8 0.3
2014-Oct-15 14:06N 66°12' E 012°52'610.8
2014-Oct-15 13:33N 66°17' E 012°56'1111.1
2014-Oct-15 12:31N 66°29' E 012°59'  
Track history (hours):
 
Tides and Currents Weather Stations Pressure Air Temp Water Temp Dewpoint Dewpoint Depression Visibility Wind Speed Wind Dir Waves Ship Positions

Jomi

Last reported at 2014-Oct-24 03:33 UTC. Time now 2014-Oct-25 07:05 UTC.
Position N 50°33' E 000°20'.

Length 88 m; draft 5.9 m.

Type: Cargo ship. MMSI: 309701000.

Date/timePositionNaut miles runAvg speedWind from/ knotsBaromVisibWave heightAir tempDewpointWater temp
2014-Oct-24 03:33N 50°33' E 000°20'10 9.8
2014-Oct-24 02:33N 50°37' E 000°34'9 9.1
2014-Oct-24 01:33N 50°42' E 000°46'8 8.3
2014-Oct-24 00:32N 50°46' E 000°58'16 7.0
2014-Oct-23 22:13N 50°55' E 001°19'4 6.6
2014-Oct-23 21:32N 50°59' E 001°23'8 8.1
2014-Oct-23 20:33N 51°04' E 001°33'8 7.7
2014-Oct-23 19:33N 51°04' E 001°45'1010.4
2014-Oct-23 18:33N 51°03' E 002°01'1211.6
2014-Oct-23 17:33N 51°04' E 002°19'1 0.9
2014-Oct-23 16:33N 51°03' E 002°19'2 1.7
2014-Oct-23 15:32N 51°02' E 002°16'0 0.0
2014-Oct-23 14:32N 51°02' E 002°16'0 0.0
2014-Oct-23 13:32N 51°02' E 002°16'0 0.0
2014-Oct-23 12:32N 51°02' E 002°16'0 0.0
2014-Oct-23 11:32N 51°02' E 002°16'0 0.0
2014-Oct-23 10:32N 51°02' E 002°16'0 0.0
2014-Oct-23 09:32N 51°02' E 002°16'0 0.0
2014-Oct-23 08:33N 51°02' E 002°16'0 0.0
2014-Oct-23 07:33N 51°02' E 002°16'2 1.9
2014-Oct-23 06:33N 51°03' E 002°19'1 1.4
2014-Oct-23 05:33N 51°04' E 002°21'8 7.8
2014-Oct-23 04:33N 51°03' E 002°09'9 9.2
2014-Oct-23 03:33N 51°02' E 001°54'7 7.5
2014-Oct-23 02:33N 51°06' E 001°43'6 6.0
2014-Oct-23 01:33N 51°12' E 001°45'6 6.3
2014-Oct-23 00:33N 51°18' E 001°49'7 6.6
2014-Oct-22 23:33N 51°24' E 001°53'7 7.2
2014-Oct-22 22:33N 51°29' E 002°01'9 8.6
2014-Oct-22 21:33N 51°35' E 002°10'181 5.6
2014-Oct-21 13:27N 54°08' E 004°50'6 6.2
2014-Oct-21 12:33N 54°13' E 004°52'  
2014-Oct-16 21:27N 66°17' E 012°15'8 8.4
2014-Oct-16 20:33N 66°14' E 012°33'8 0.3
2014-Oct-15 14:06N 66°12' E 012°52'610.8
2014-Oct-15 13:33N 66°17' E 012°56'1111.1
2014-Oct-15 12:31N 66°29' E 012°59'  

Dump ship's entire track history